Terug naar catalogus

STARLINK-4356

ActiefCommunicatieSSO
NORAD 53224·PAYLOAD·🇺🇸 United States

Gelanceerd Jul 22, 2022 vanaf Vandenberg Space Force Base

Loading…

Volgende Passages (komende 24 uur)

TLE

VersSource: CelesTrak SupGP

Epoch: Sep 15, 2026, 01:20 UTC

1 53224C 22084AM  26258.05604167  .00038270  00000+0  11881-2 0  2582
2 53224  97.2836 312.9150 0001018  85.5493  34.5834 15.33417472    13

Volg STARLINK-4356 in realtime met AllMySat

Download on the App Store